Weather History for PHNY - June, 2013

Change the Weather History Date:

Sunday, June 30, 2013

  Actual Average Record
Temperature  
Mean Temperature 75 °F -  
Max Temperature 84 °F 82 °F 85 °F (1981)
Min Temperature 66 °F 65 °F 58 °F (1981)
Cooling Degree Days 10    
Growing Degree Days 25 (Base 50)    
Moisture  
Dew Point 65 °F    
Average Humidity 71    
Maximum Humidity 90    
Minimum Humidity 51    
Precipitation  
Precipitation 0.00 in - - ()
Sea Level Pressure  
Sea Level Pressure 30.02 in    
Wind  
Wind Speed 12 mph (NE)    
Max Wind Speed 32 mph    
Max Gust Speed 40 mph    
Visibility 10 miles    
Events      
Averages and records for this station are not official NWS values.
T = Trace of Precipitation, MM = Missing Value Source: NWS Daily Summary

Daily Weather History Graph

Daily Weather History Graph

Search for Another Location

Airport or City:

Trip Planner

Search our weather history database for the weather conditions in past years. The results will help you decide how hot, cold, wet, or windy it might be!

Date:

Astronomy

Jun. 30, 2013 Rise Set
Actual Time 5:50 AM HST 7:12 PM HST
Civil Twilight 5:25 AM HST 7:37 PM HST
Nautical Twilight 4:56 AM HST 8:06 PM HST
Astronomical Twilight 4:25 AM HST 8:37 PM HST
Moon 12:20 AM HST (6/30) 1:08 PM HST (6/30)
Length of Visible Light 14h 11m
Length of Day
13h 22m
Last Quarter, 43% of the Moon is Illuminated
Jun 30
Last Quarter
Jul 7
New
Jul 15
First Quarter
Jul 22
Full
Jul 29
Last Quarter

Hourly Weather History & Observations

Time (HST) Temp. Heat Index Dew Point Humidity Pressure Visibility Wind Dir Wind Speed Gust Speed Precip Events Conditions
12:56 AM 68.9 °F - 65.8 °F 90% 30.01 in 10.0 mi NNE 8.1 mph - N/A   Clear
1:56 AM 70.0 °F - 66.9 °F 90% 30.00 in 10.0 mi NE 9.2 mph - N/A   Mostly Cloudy
2:56 AM 68.9 °F - 65.8 °F 90% 30.00 in 10.0 mi ENE 6.9 mph - N/A   Partly Cloudy
3:56 AM 68.9 °F - 65.8 °F 90% 30.00 in 10.0 mi ENE 8.1 mph - N/A   Clear
4:56 AM 66.9 °F - 63.9 °F 90% 30.01 in 10.0 mi NE 9.2 mph - N/A   Clear
5:56 AM 68.0 °F - 64.9 °F 90% 30.02 in 10.0 mi NE 9.2 mph - N/A   Clear
6:56 AM 72.0 °F - 65.8 °F 81% 30.03 in 10.0 mi ENE 10.4 mph - N/A   Clear
7:56 AM 75.9 °F - 64.9 °F 69% 30.04 in 10.0 mi East 6.9 mph - N/A   Clear
8:33 AM 78.8 °F - 64.4 °F 61% 30.11 in 10.0 mi NNE 6.9 mph - N/A   Mostly Cloudy
8:56 AM 77.9 °F - 65.8 °F 66% 30.04 in 10.0 mi NNE 9.2 mph - N/A   Mostly Cloudy
9:03 AM 78.8 °F - 66.2 °F 65% 30.10 in 10.0 mi NE 12.7 mph - N/A   Scattered Clouds
9:56 AM 81.9 °F 83.9 °F 65.8 °F 58% 30.02 in 10.0 mi NE 19.6 mph 23.0 mph N/A   Clear
10:56 AM 82.9 °F 85.0 °F 65.8 °F 56% 30.02 in 10.0 mi NE 17.3 mph 21.9 mph N/A   Clear
11:56 AM 83.8 °F 85.6 °F 64.9 °F 53% 30.01 in 10.0 mi NE 20.7 mph 24.2 mph N/A   Clear
12:56 PM 84.9 °F 86.6 °F 64.9 °F 51% 30.00 in 10.0 mi NNE 15.0 mph 20.7 mph N/A   Clear
1:56 PM 83.8 °F 85.6 °F 64.9 °F 53% 29.99 in 10.0 mi NNE 19.6 mph - N/A   Clear
2:56 PM 82.9 °F 84.0 °F 63.0 °F 51% 29.98 in 10.0 mi NE 18.4 mph 25.3 mph N/A   Clear
3:56 PM 82.9 °F 84.6 °F 64.9 °F 54% 29.96 in 10.0 mi NE 16.1 mph - N/A   Clear
4:56 PM 81.0 °F 82.5 °F 63.9 °F 56% 29.97 in 10.0 mi NNE 15.0 mph - N/A   Clear
5:56 PM 79.0 °F - 63.9 °F 60% 29.98 in 10.0 mi NE 15.0 mph - N/A   Clear
6:56 PM 73.9 °F - 64.9 °F 73% 30.00 in 10.0 mi NE 16.1 mph - N/A   Clear
7:56 PM 72.0 °F - 63.9 °F 76% 30.01 in 10.0 mi NE 17.3 mph - N/A   Clear
8:56 PM 70.9 °F - 63.9 °F 78% 30.02 in 10.0 mi NE 11.5 mph - N/A   Clear
9:56 PM 70.9 °F - 63.0 °F 76% 30.01 in 10.0 mi NE 18.4 mph 23.0 mph N/A   Clear
10:41 PM 71.6 °F - 64.4 °F 78% 30.08 in - ENE 13.8 mph 23.0 mph N/A   Mostly Cloudy
10:56 PM 71.6 °F - 64.4 °F 78% 30.08 in - East 10.4 mph - N/A   Clear
11:34 PM 71.6 °F - 64.4 °F 78% 30.06 in 10.0 mi NE 18.4 mph 34.5 mph N/A   Clear
11:56 PM 70.9 °F - 63.0 °F 76% 29.97 in 10.0 mi NE 32.2 mph 40.3 mph N/A   Clear